Погода Добеле

Погода Добеле : погода сейчас, прогноз погоды и архив. Всё, что Вы хотите узнать о погоде Добеле!

Поиск расширенной информации на нашем сайте:

Другие новости

Новости СМИ2

Главная страница сайта

Новости сайта

03.07.2017

Напоминаем, что на нашем специализированном сайте Метеоцентр.Азия вы можете получить высокодетализированные автоматические прогнозы погоды по пунктам России, СНГ и мира в авиационном формате (включающие направление и скорость ветра, видимость, явления погоды, количество и форму облачности, нижнюю и верхнюю границу облачности).


Погода Добеле - сегодня

Время (UTC), дата Ветер
(°,м/с) 
Видим.   Явления Облачность Т
(°С)
Тd
(°С)
f(%) Тe
(°С)
Pmin
(гПа)
dP
(гПа)
Po
(мм)
O2
(г/м3)
Тmin Tmax R s Состояние
почвы
00 19.09.17 270 (З) 4{13}  10 км  {ливн. осадки}  10/0 средняя 
[Ac und]
+9.6 +8.1 90 +9  1006.8  1.8  751  291           
03 19.09.17 240 (ЮЗ) 10 км    9/0 средняя 
[Ac trans]
+9 +7.7 92 +9  1007.8  752  291           
06 19.09.17 230 (ЮЗ) 20000 м    10/3 300 м средняя 
[Sc|Ac und]
+9.8 +8 89 +9  1008.9  1.1  753  291  +8.8    0.6     
09 19.09.17 230 (ЮЗ) 20000 м    10/3 300 м средняя 
[Sc|Ac und]
+12.4 +9 80 +12  1010.3  1.4  754  288           
12 19.09.17 270 (З) 3{10}  20000 м  в посл. час ливневой дождь  8/3 300 м средняя 
[Cu med, cong|Ac trans]
+14 +10.7 80 +16  1011.6  1.3  755  287           
15 19.09.17 270 (З) 3{13}  20000 м    10/1 600 м средняя, верхняя 
[Cu med, cong|Ac trans|Ci fib]
+14 +7.5 65 +14  1013  1.4  756  288           
18 19.09.17 210 (ЮЗ) 1{13}  10 км    4/0 средняя, верхняя 
[Ac trans|Ci fib]
+9.8 +7.8 87 +11  1014.7  1.6  757  292    +15.8  0.0     
21 19.09.17 210 (ЮЗ) 10 км    ясно 
+8.7 +7.7 93 +9  1016  1.3  758  294           
00 20.09.17 210 (ЮЗ) 10 км    ясно 
+7.6 +7.1 97 +9  1016.5  0.5  758  296           
03 20.09.17 220 (ЮЗ) 10 км    4/0 средняя 
[Ac trans]
+7.6 +6.9 95 +8  1016.9  0.4  759  296           
06 20.09.17 210 (ЮЗ) 20000 м    3/0 средняя 
[Ac trans]
+9.6 +8.3 92 +10  1018.1  1.2  760  294  +6.8         
09 20.09.17 200 (Ю) 20000 м    3/0 средняя 
[Ac trans]
+16 +10.5 70 +18  1018.5  0.5  760  287           
12 20.09.17 150 (ЮВ) 20000 м    9/6 600 м средняя 
[Sc|Ac trans]
+16.4 +10.6 69 +18  1018.7  0.3  760  287           
15 20.09.17 160 (Ю) 20000 м    8/4 600 м средняя, верхняя 
[Cu med, cong|Ac trans|Ci fib]
+15.5 +9.5 67 +16  1019.2  0.4  760  287           
18 20.09.17 160 (Ю) 10 км    8/0 средняя, верхняя 
[Ac trans|Ci fib]
+11.8 +10 89 +13  1020.3  1.1  761  291    +17.8       
21 20.09.17 040 (СВ) 10 км    6/0 средняя, верхняя 
[Ac trans|Ci fib]
+8.5 +7.8 95 +10  1021.2  0.8  762  296           
00 21.09.17 020 (С) 10 км    10/0 средняя 
[Ac und]
+9.2 +8.8 97 +10  1021.6  0.4  762  296           
03 21.09.17 050 (СВ) 10 км    10/0 средняя 
[Ac und]
+9.6 +8.9 95 +10  1021.2  -0.4  762  294           
06 21.09.17 050 (СВ) 20000 м  в посл. час ливневой дождь  9/0 средняя 
[Ac trans]
+10.7 +9.9 95 +11  1020.5  -0.7  761  293  +8.3    0.4     
09 21.09.17 030 (СВ) 20000 м  {ливн. осадки}  10/0 средняя 
[Ac und]
+12.8 +11.3 91 +16  1020.2  -0.2  761  290           
12 21.09.17 030 (СВ) 20000 м  слаб. ливневой дождь  10/8 400 м кучево-дожд., средняя 
[Cb cap|Ac und]
+12.7 +11.8 94 +15  1019.2  -1  761  291           
15 21.09.17 060 (СВ) 13000 м  слаб. ливневой дождь  10/10 420 м кучево-дожд. 
[Cb cap]
+12.3 +11.9 97 +15  1018.4  -0.8  760  290           
18 21.09.17 050 (СВ) 10 км  в посл. час ливневой дождь  10/4 300 м средняя 
[Sc|Ac und]
+12.2 +11.2 94 +14  1018.4  760  290    +13.8  10     
21 21.09.17 050 (СВ) 10 км    10/4 300 м средняя 
[Sc|Ac und]
+11.8 +11 95 +13  1017.9  -0.5  759  290           
00 22.09.17 050 (СВ) 10 км    10/0 средняя 
[Ac und]
+11.8 +11.1 95 +14  1018.2  0.3  760  291           
Время (UTC), дата Ветер
(°,м/с) 
Видим.   Явления Облачность Т
(°С)
Тd
(°С)
f(%) Тe
(°С)
Pmin
(гПа)
dP
(гПа)
Po
(мм)
O2
(г/м3)
Тmin Tmax R s Состояние
почвы

Для получения пояснительной информации подведите курсор к названию столбца.

ПОГОДА Добеле - архив

Всё, что Вы хотите узнать о погоде Добеле - удобно и подробно!

Выберите нужную дату (начиная с 1 января 2015* года) и нажмите кнопку "Найти".
Будут отображены архивные сводки погоды по пункту Добеле, начиная с указанной даты.


Отображать данные в формате CSV (для использования в таблицах Excel)


Внимание! Наш архив погоды предназначен исключительно для личного некоммерческого использования в познавательных целях. Если Вам необходимы официальные справки о состоянии погоды (для производственных, юридических, коммерческих и т.п. целей), обращайтесь в органы Росгидромета.

*Примечание: данная дата относится к архиву по метеостанциям СССР (Россия, СНГ, Балтия).
Архив по метеостанциям Зарубежной Европы и Азии (кроме Китая) хранится 10 дней, по другим регионам земного шара (Китай, Африка, Америка, Австралия, Океания) - 1 день.

Добеле - район местоположения метеостанции


Название, широта, долгота, высота метеостанции:
Добеле 56.6°ш. 23.3°д. 44 м над ур. моря [Латвия]

Дополнительная информация

В oтличие oт бoльшинства пoгoдных сайтoв мы публикуем пoдрoбную метеoинфoрмацию в детальнoм прoфессиoнальнoм фoрмате.

Характеристики температуры и влажнoсти вoздуха измеряются на высoте 2 м в тени вдали oт зданий и деревьев.
Скoрoсть ветра измеряется на высoте 10 м (на урoвне рoста челoвека скoрoсть ветра ниже в 1.5-2 раза). Если метеoстанция нахoдится в гoрoде или в лесу, тo скoрoсть ветра занижена на 2-4 м/с пo сравнению с oткрытым местoм. Скoрoсть ветра над акватoриями крупных рек и oзёр, а также на вершинах хoлмoв на 2-5 м/с выше, чем в oбычных услoвиях.
Атмoсфернoе давление в разных тoчках местнoсти мoжет значительнo oтличаться oт давления на метеoстанции, в зависимoсти oт услoвий рельефа (при пoдъёме на 10 м давление пoнижается примернo на 1 мм рт.ст.).